Faribault, MN

1:59 PM CDT on May 20, 2018 (GMT -0500)
Faribault Municipal

Weather History for KFBL - June, 2013

Change the Weather History Date:

Saturday, June 29, 2013

  Actual Average Record
Temperature  
Mean Temperature 66 °F -  
Max Temperature 73 °F 83 °F 98 °F (1970)
Min Temperature 60 °F 59 °F 33 °F (2006)
Cooling Degree Days 2    
Growing Degree Days 16 (Base 50)    
Moisture  
Dew Point 60 °F    
Average Humidity 81    
Maximum Humidity 100    
Minimum Humidity 57    
Precipitation  
Precipitation 0.31 in - - ()
Sea Level Pressure  
Sea Level Pressure 29.86 in    
Wind  
Wind Speed 8 mph (North)    
Max Wind Speed 16 mph    
Max Gust Speed 23 mph    
Visibility 10 miles    
Events Rain , Thunderstorm    
Averages and records for this station are not official NWS values.
T = Trace of Precipitation, MM = Missing Value Source: NWS Daily Summary

Daily Weather History Graph

Daily Weather History Graph

Search for Another Location

Airport or City:

Astronomy

Jun. 29, 2013 Rise Set
Actual Time 5:32 AM CDT 9:01 PM CDT
Civil Twilight 4:55 AM CDT 9:37 PM CDT
Nautical Twilight 4:07 AM CDT 10:25 PM CDT
Astronomical Twilight 3:05 AM CDT 11:27 PM CDT
Moon 12:14 AM CDT (6/29) 1:01 PM CDT (6/29)
Length of Visible Light 16h 42m
Length of Day
15h 29m
Waning Gibbous, 55% of the Moon is Illuminated
Jun 29
Waning Gibbous
Jun 29
Last Quarter
Jul 8
New
Jul 15
First Quarter
Jul 22
Full

Hourly Weather History & Observations

Time (CDT) Temp. Dew Point Humidity Pressure Visibility Wind Dir Wind Speed Gust Speed Precip Events Conditions
12:14 AM 64.4 °F 62.6 °F 94% 29.79 in 10.0 mi NNW 5.8 mph - N/A   Scattered Clouds
12:34 AM 64.4 °F 64.4 °F 100% 29.79 in 10.0 mi NNW 5.8 mph - N/A   Clear
12:54 AM 64.4 °F 62.6 °F 94% 29.79 in 10.0 mi NNW 9.2 mph - N/A   Scattered Clouds
1:14 AM 64.4 °F 62.6 °F 94% 29.79 in 10.0 mi NW 10.4 mph - N/A Rain Light Rain
1:33 AM 64.4 °F 62.6 °F 94% 29.78 in 10.0 mi NNW 6.9 mph - N/A   Scattered Clouds
1:54 AM 64.4 °F 62.6 °F 94% 29.78 in 10.0 mi NNW 4.6 mph - N/A   Mostly Cloudy
2:14 AM 62.6 °F 62.6 °F 100% 29.78 in 10.0 mi WNW 3.5 mph - N/A   Scattered Clouds
2:34 AM 62.6 °F 62.6 °F 100% 29.78 in 10.0 mi NW 4.6 mph - N/A   Mostly Cloudy
2:54 AM 62.6 °F 62.6 °F 100% 29.78 in 10.0 mi NW 5.8 mph - N/A Rain Light Rain
3:14 AM 64.4 °F 62.6 °F 94% 29.78 in 10.0 mi NW 5.8 mph - N/A Thunderstorm Overcast
3:34 AM 64.4 °F 62.6 °F 94% 29.77 in 10.0 mi NW 5.8 mph - N/A   Overcast
3:54 AM 62.6 °F 62.6 °F 100% 29.77 in 10.0 mi NW 4.6 mph - N/A   Overcast
4:14 AM 64.4 °F 62.6 °F 94% 29.77 in 10.0 mi NW 3.5 mph - N/A   Overcast
4:33 AM 64.4 °F 62.6 °F 94% 29.77 in 10.0 mi WNW 4.6 mph - N/A   Overcast
4:54 AM 64.4 °F 62.6 °F 94% 29.77 in 10.0 mi WNW 6.9 mph - N/A   Overcast
5:14 AM 64.4 °F 62.6 °F 94% 29.76 in 10.0 mi WNW 4.6 mph - N/A   Overcast
5:34 AM 62.6 °F 62.6 °F 100% 29.76 in 4.0 mi NW 6.9 mph - 0.24 in Rain Heavy Rain
5:54 AM 62.6 °F 62.6 °F 100% 29.78 in 10.0 mi North 8.1 mph - 0.25 in Rain , Thunderstorm Light Thunderstorms and Rain
6:13 AM 62.6 °F 60.8 °F 94% 29.79 in 10.0 mi North 6.9 mph - N/A   Drizzle
6:34 AM 60.8 °F 60.8 °F 100% 29.79 in 10.0 mi North 9.2 mph - 0.03 in Rain Light Rain
6:54 AM 60.8 °F 60.8 °F 100% 29.80 in 10.0 mi North 8.1 mph - 0.05 in Rain Light Rain
7:14 AM 60.8 °F 60.8 °F 100% 29.80 in 7.0 mi North 8.1 mph - N/A Rain Rain
7:34 AM 62.6 °F 62.6 °F 100% 29.81 in 10.0 mi NNW 8.1 mph - N/A   Overcast
7:54 AM 62.6 °F 62.6 °F 100% 29.82 in 10.0 mi North 12.7 mph 17.3 mph N/A   Overcast
8:14 AM 62.6 °F 62.6 °F 100% 29.82 in 10.0 mi North 9.2 mph - N/A   Overcast
8:33 AM 62.6 °F 62.6 °F 100% 29.83 in 10.0 mi North 8.1 mph - 0.01 in   Overcast
8:54 AM 62.6 °F 60.8 °F 94% 29.84 in 10.0 mi North 9.2 mph 16.1 mph 0.01 in   Overcast
9:14 AM 62.6 °F 60.8 °F 94% 29.84 in 10.0 mi North 11.5 mph 18.4 mph N/A   Overcast
9:34 AM 62.6 °F 60.8 °F 94% 29.85 in 10.0 mi North 12.7 mph - N/A   Overcast
9:54 AM 64.4 °F 60.8 °F 88% 29.85 in 10.0 mi North 12.7 mph 18.4 mph N/A   Overcast
10:14 AM 64.4 °F 62.6 °F 94% 29.85 in 10.0 mi North 13.8 mph 20.7 mph N/A   Overcast
10:34 AM 66.2 °F 60.8 °F 83% 29.86 in 10.0 mi North 13.8 mph 19.6 mph N/A   Mostly Cloudy
10:54 AM 66.2 °F 60.8 °F 83% 29.87 in 10.0 mi North 12.7 mph 20.7 mph N/A   Scattered Clouds
11:14 AM 68.0 °F 60.8 °F 78% 29.86 in 10.0 mi North 16.1 mph 20.7 mph N/A   Scattered Clouds
11:34 AM 68.0 °F 60.8 °F 78% 29.87 in 10.0 mi North 11.5 mph 19.6 mph N/A   Scattered Clouds
11:54 AM 68.0 °F 60.8 °F 78% 29.88 in 10.0 mi NNE 10.4 mph 21.9 mph N/A   Mostly Cloudy
12:14 PM 71.6 °F 60.8 °F 69% 29.88 in 10.0 mi North 11.5 mph 20.7 mph N/A   Mostly Cloudy
12:33 PM 69.8 °F 60.8 °F 73% 29.88 in 10.0 mi North 12.7 mph 20.7 mph N/A   Mostly Cloudy
12:54 PM 69.8 °F 60.8 °F 73% 29.88 in 10.0 mi North 12.7 mph 20.7 mph N/A   Scattered Clouds
1:14 PM 69.8 °F 60.8 °F 73% 29.89 in 10.0 mi North 13.8 mph 18.4 mph N/A   Mostly Cloudy
1:34 PM 71.6 °F 60.8 °F 69% 29.89 in 10.0 mi NNE 11.5 mph 18.4 mph N/A   Scattered Clouds
1:54 PM 73.4 °F 60.8 °F 65% 29.88 in 10.0 mi North 10.4 mph 18.4 mph N/A   Scattered Clouds
2:14 PM 73.4 °F 60.8 °F 65% 29.89 in 10.0 mi North 10.4 mph - N/A   Scattered Clouds
2:34 PM 73.4 °F 60.8 °F 65% 29.89 in 10.0 mi North 11.5 mph 23.0 mph N/A   Scattered Clouds
2:54 PM 73.4 °F 59.0 °F 61% 29.89 in 10.0 mi North 12.7 mph 18.4 mph N/A   Scattered Clouds
3:14 PM 73.4 °F 59.0 °F 61% 29.89 in 10.0 mi North 11.5 mph - N/A   Clear
3:34 PM 73.4 °F 59.0 °F 61% 29.89 in 10.0 mi North 10.4 mph - N/A   Clear
3:53 PM 73.4 °F 59.0 °F 61% 29.89 in 10.0 mi North 11.5 mph 16.1 mph N/A   Scattered Clouds
4:14 PM 73.4 °F 60.8 °F 65% 29.89 in 10.0 mi North 9.2 mph - N/A   Scattered Clouds
4:33 PM 73.4 °F 60.8 °F 65% 29.89 in 10.0 mi North 10.4 mph 16.1 mph N/A   Scattered Clouds
4:54 PM 71.6 °F 60.8 °F 69% 29.90 in 10.0 mi North 9.2 mph - N/A   Scattered Clouds
5:14 PM 71.6 °F 57.2 °F 60% 29.91 in 10.0 mi North 8.1 mph 20.7 mph N/A   Clear
5:33 PM 73.4 °F 59.0 °F 61% 29.90 in 10.0 mi North 10.4 mph 16.1 mph N/A   Clear
5:54 PM 71.6 °F 59.0 °F 64% 29.90 in 10.0 mi NNE 9.2 mph - N/A   Clear
6:14 PM 73.4 °F 57.2 °F 57% 29.90 in 10.0 mi NNE 8.1 mph 17.3 mph N/A   Clear
6:34 PM 71.6 °F 57.2 °F 60% 29.91 in 10.0 mi NNE 12.7 mph 18.4 mph N/A   Mostly Cloudy
6:46 PM 71.6 °F 59.0 °F 64% 29.91 in 10.0 mi NNE 9.2 mph - N/A   Scattered Clouds
7:01 PM 71.6 °F 59.0 °F 64% 29.92 in 10.0 mi NNE 9.2 mph - N/A   Scattered Clouds
7:41 PM 69.8 °F 57.2 °F 64% 29.93 in 10.0 mi NNE 6.9 mph - N/A   Clear
8:01 PM 69.8 °F 57.2 °F 64% 29.94 in 10.0 mi NNE 5.8 mph - N/A   Clear
8:21 PM 68.0 °F 57.2 °F 68% 29.94 in 10.0 mi NNE 5.8 mph - N/A   Clear
8:41 PM 66.2 °F 57.2 °F 73% 29.94 in 10.0 mi North 5.8 mph - N/A   Clear
9:01 PM 66.2 °F 57.2 °F 73% 29.95 in 10.0 mi North 5.8 mph - N/A   Clear
9:21 PM 64.4 °F 55.4 °F 73% 29.96 in 10.0 mi North 4.6 mph - N/A   Clear
9:41 PM 64.4 °F 55.4 °F 73% 29.96 in 10.0 mi North 4.6 mph - N/A   Clear
10:01 PM 64.4 °F 55.4 °F 73% 29.97 in 10.0 mi North 4.6 mph - N/A   Clear
10:21 PM 62.6 °F 55.4 °F 77% 29.97 in 10.0 mi North 4.6 mph - N/A   Clear
10:41 PM 62.6 °F 55.4 °F 77% 29.98 in 10.0 mi North 4.6 mph - N/A   Clear
11:01 PM 62.6 °F 55.4 °F 77% 29.98 in 10.0 mi North 4.6 mph - N/A   Clear
11:21 PM 60.8 °F 55.4 °F 82% 29.98 in 10.0 mi North 4.6 mph - N/A   Clear
11:41 PM 60.8 °F 55.4 °F 82% 29.98 in 10.0 mi NNE 4.6 mph - N/A   Clear